Weather History for Gage, OK

Change the Weather History Date:

Friday, January 27, 2012

  Actual Average Record
Temperature  
Mean Temperature 44 °F -  
Max Temperature 57 °F 48 °F 78 °F (1970)
Min Temperature 28 °F 19 °F -4 °F (1963)
Degree Days  
Heating Degree Days 22    
Growing Degree Days 0 (Base 50)    
Moisture  
Dew Point 27 °F    
Average Humidity 52    
Maximum Humidity 67    
Minimum Humidity 34    
Precipitation  
Precipitation 0.00 in - - ()
Sea Level Pressure  
Sea Level Pressure 29.96 in    
Wind  
Wind Speed 20 mph (NW)    
Max Wind Speed 31 mph    
Max Gust Speed 41 mph    
Visibility 10 miles    
Events      
Averages and records for this station are not official NWS values.
T = Trace of Precipitation, MM = Missing Value Source: NWS Daily Summary

Daily Weather History Graph

Daily Weather History Graph

Search for Another Location

Airport:

Trip Planner

Search our weather history database for the weather conditions in past years. The results will help you decide how hot, cold, wet, or windy it might be!

Date:

Astronomy

Jan. 27, 2012 Rise Set
Actual Time 7:44 AM CST 5:59 PM CST
Civil Twilight 7:16 AM CST 6:27 PM CST
Nautical Twilight 6:45 AM CST 6:58 PM CST
Astronomical Twilight 6:15 AM CST 7:28 PM CST
Moon 9:49 AM CST (1/27) 10:41 PM CST (1/27)
Length of Visible Light 11h 10m
Length of Day
10h 15m
Waxing Crescent, 20% of the Moon is Illuminated
Jan 27
Waxing Crescent
Jan 30
First Quarter
Feb 7
Full
Feb 14
Last Quarter
Feb 21
New

Hourly Weather History & Observations

Time (CST) Temp. Windchill Dew Point Humidity Pressure Visibility Wind Dir Wind Speed Gust Speed Precip Events Conditions
12:53 AM 44.1 °F 36.5 °F 28.9 °F 55% 29.86 in 10.0 mi South 17.3 mph - N/A   Clear
1:53 AM 42.1 °F 33.1 °F 30.9 °F 65% 29.83 in 10.0 mi South 20.7 mph - N/A   Clear
2:53 AM 43.0 °F 34.2 °F 30.0 °F 60% 29.80 in 10.0 mi South 20.7 mph 29.9 mph N/A   Clear
3:53 AM 43.0 °F 33.5 °F 32.0 °F 65% 29.77 in 10.0 mi South 24.2 mph 31.1 mph N/A   Clear
4:53 AM 44.1 °F 34.6 °F 32.0 °F 63% 29.74 in 10.0 mi South 26.5 mph - N/A   Clear
5:53 AM 45.0 °F 36.6 °F 32.0 °F 60% 29.74 in 10.0 mi South 21.9 mph 31.1 mph N/A   Clear
6:53 AM 44.1 °F 36.8 °F 32.0 °F 63% 29.78 in 10.0 mi SSW 16.1 mph - N/A   Clear
7:53 AM 43.0 °F 34.5 °F 32.0 °F 65% 29.79 in 10.0 mi SSW 19.6 mph - N/A   Clear
8:53 AM 45.0 °F 37.4 °F 32.0 °F 60% 29.79 in 10.0 mi SW 18.4 mph - N/A   Clear
9:53 AM 48.2 °F - 28.4 °F 46% 29.79 in 10.0 mi West 12.7 mph - N/A   Clear
10:53 AM 53.1 °F - 26.1 °F 35% 29.82 in 10.0 mi NNW 18.4 mph 25.3 mph N/A   Clear
11:53 AM 55.0 °F - 27.0 °F 34% 29.85 in 10.0 mi NNW 25.3 mph 31.1 mph N/A   Clear
12:53 PM 57.9 °F - 30.9 °F 36% 29.84 in 10.0 mi North 27.6 mph 34.5 mph N/A   Clear
1:53 PM 54.0 °F - 30.9 °F 41% 29.88 in 10.0 mi North 27.6 mph 36.8 mph N/A   Partly Cloudy
2:53 PM 48.9 °F - 28.0 °F 44% 29.94 in 10.0 mi North 29.9 mph 41.4 mph N/A   Overcast
3:53 PM 50.0 °F - 27.0 °F 41% 30.00 in 10.0 mi North 31.1 mph 39.1 mph N/A   Scattered Clouds
4:53 PM 48.9 °F - 27.0 °F 43% 30.06 in 10.0 mi North 23.0 mph 29.9 mph N/A   Clear
5:53 PM 48.0 °F - 23.0 °F 37% 30.11 in 10.0 mi North 23.0 mph 29.9 mph N/A   Clear
6:53 PM 44.1 °F 37.7 °F 21.0 °F 40% 30.17 in 10.0 mi North 12.7 mph - N/A   Clear
7:53 PM 37.4 °F 32.8 °F 21.2 °F 52% 30.21 in 10.0 mi North 5.8 mph - N/A   Clear
8:53 PM 35.1 °F 27.4 °F 21.0 °F 57% 30.27 in 10.0 mi North 10.4 mph - N/A   Clear
9:53 PM 34.0 °F 27.2 °F 19.9 °F 56% 30.31 in 10.0 mi NNW 8.1 mph - N/A   Clear
10:53 PM 30.9 °F 24.3 °F 19.9 °F 64% 30.35 in 10.0 mi NNW 6.9 mph - N/A   Clear
11:53 PM 28.9 °F 21.1 °F 19.0 °F 67% 30.36 in 10.0 mi North 8.1 mph - N/A   Clear